Flag for U.S.A. Weather past 2 weeks in Aurora, Colorado, U.S.A.

69 °F

Partly sunny.

Feels Like: 69 °F
Forecast: 51 / 83 °F
Wind: 5 mph from East

Location: Buckley Air Force Base

Current Time: Oct 9, 2015 at 6:46:27 PM

Latest Report: Oct 9, 2015 at 5:58 PM

Visibility: 10 mi

Pressure: 30.09 "Hg (24.84 "Hg at 1647m altitude)

Humidity: 38%

Dew point: 42 °F

Location of AuroraLocation

Historic Weather in Aurora — Graph


Aurora temperature yesterday

Maximum temperature yesterday: 77 °F (at 2:58 PM)
Minimum temperature yesterday: 48 °F (at 5:58 AM)
Average temperature yesterday: 60 °F

Past Weeks' High & Low Weather Summary

High87 °F (Sep 27, 1:58 PM)100% (Sep 29, 3:58 AM)30.31 "Hg (Sep 29, 3:58 AM)
Low40 °F (Oct 5, 3:58 AM)12% (Sep 27, 2:58 PM)29.63 "Hg (Oct 2, 2:58 PM)
Average62 °F62%29.99 "Hg
* Reported Sep 24 4:58 PM — Oct 9 4:58 PM, Aurora, Weather by CustomWeather, © 2015

Note: Actual official high and low records may vary slightly from our data, if they occured in-between our weather recording intervals... More about our weather records


Aurora weather history for previous 24 hours

Time TempWeatherWind HumidityBarometerVisibility
4:58 PM
Fri, Oct 9
73 °FPartly sunny.5 mph33%30.09 "Hg10 mi
3:58 PM74 °FPartly sunny.No wind32%30.10 "Hg10 mi
2:58 PM73 °FPartly sunny.8 mph33%30.11 "Hg10 mi
1:58 PM72 °FPartly sunny.No wind37%30.14 "Hg10 mi
12:58 PM68 °FBroken clouds.3 mph44%30.17 "Hg10 mi
11:58 AM65 °FPartly sunny.No wind48%30.21 "Hg10 mi
10:58 AM62 °FBroken clouds.3 mph55%30.24 "Hg10 mi
9:58 AM58 °FScattered clouds.6 mph61%30.29 "Hg10 mi
8:58 AM55 °FScattered clouds.9 mph67%30.29 "Hg10 mi
7:58 AM50 °FPassing clouds.6 mph84%30.31 "Hg10 mi
6:58 AM49 °FPassing clouds.No wind85%30.29 "Hg10 mi
5:58 AM51 °FPartly cloudy.5 mph84%30.27 "Hg10 mi
4:58 AM50 °FPassing clouds.3 mph83%30.25 "Hg10 mi
3:58 AM48 °FPassing clouds.7 mph91%30.24 "Hg10 mi
2:58 AM46 °FPassing clouds.6 mph97%30.26 "Hg10 mi
1:58 AM50 °FOvercast.5 mph85%30.26 "Hg10 mi
12:58 AM51 °FOvercast.6 mph80%30.26 "Hg10 mi
11:58 PM
Thu, Oct 8
52 °FOvercast.3 mph77%30.28 "Hg10 mi
10:58 PM53 °FOvercast.2 mph75%30.29 "Hg10 mi
9:58 PM53 °FPassing clouds.12 mph71%30.29 "Hg10 mi
8:58 PM56 °FPassing clouds.10 mph63%30.26 "Hg10 mi
7:58 PM59 °FPassing clouds.15 mph55%30.24 "Hg10 mi
6:58 PM61 °FScattered clouds.10 mph50%30.19 "Hg10 mi
Weather by CustomWeather, © 2015

See weather overviewHow to use our weather pages